Probability
0 0 0 0 0 0 0 0 0 0 0 0 0 0 0 0 0 0 0 0 0 0 0 0 0 0 0 0 0 0 0 0 0 0 0 0 0 0 0 0 0 0 0
0 0 0 0 0 0 0 0 0 0 0 0 0 0 0 0 0 0 0 0 0 0 0 0 0 0 0 0 0 0 0 0 0 0 0 0 0 0 0 0 0 0 0
0 0 0 0 0 0 0 0 0 0 0 0 0 0 0 0 0 0 0 0 0 0 0 0 0 0 0 0 0 0 0 0 0 0 0 0 0 0 0 0 0 0 0
0 0 0 0 0 0 0 0 0 0 0 0 0 0 0 0 0 0 0 0 0 0 0 0 0 0 0 0 0 0 0 0 0 0 0 0 0 0 0 0 0 0 0
0 0 0 0 0 0 0 0 0 0 0 0 0 0 0 0 0 0 0 0 0 0 0 0 0 0 0 0 0 0 0 0 0 0 0 0 0 0 0 0 0 0 0
0 0 0 0 0 0 0 0 0 0 0 0 0 0 0 0 0 0 0 0 0 0 0 0 0 0 0 0 0 0 0 0 0 0 0 0 0 0 0 0 0 0 0
0 0 0 0 0 0 0 0 0 0 0 0 0 0 0 0 0 0 0 0 0 0 0 0 0 0 0 0 0 0 0 0 0 0 0 0 0 0 0 0 0 0 0
0 0 0 0 0 0 0 0 0 0 0 0 0 0 0 0 0 0 0 0 0 0 0 0 0 0 0 0 0 0 0 0 0 0 0 0 0 0 0 0 0 0 0
0 0 0 0 0 0 0 0 0 0 0 0 0 0 0 0 0 0 0 0 0 0 0 0 0 0 0 0 0 0 0 0 0 0 0 0 0 0 0 0 0 0 0
0 0 0 0 0 0 0 0 0 0 0 0 0 0 0 0 0 0 0 0 0 0 0 0 0 0 0 0 0 0 0 0 0 0 0 0 0 0 0 0 0 0 0
0 0 0 0 0 0 0 0 0 0 0 0 0 0 0 0 0 0 0 0 0 0 0 0 0 0 0 0 0 0 0 0 0 0 0 0 0 0 0 0 0 0 0
0 0 0 0 0 0 0 0 0 0 0 0 0 0 0 0 0 0 0 0 0 0 0 0 0 0 0 0 0 0 0 0 0 0 0 0 0 0 0 0 0 0 0
0 0 0 0 0 0 0 0 0 0 0 0 0 0 0 0 0 0 0 0 0 0 0 0 0 0 0 0 0 0 0 0 0 0 0 0 0 0 0 0 0 0 0
0 0 0 0 0 0 0 0 0 0 0 0 0 0 0 0 0 0 0 0 0 0 0 0 0 0 0 0 0 0 0 0 0 0 0 0 0 0 0 0 0 0 0
0 0 0 0 0 0 0 0 0 0 0 0 0 0 0 0 0 0 0 0 0 0 0 0 0 0 0 0 0 0 0 0 0 0 0 0 0 0 0 0 0 0 0
0 0 0 0 0 0 0 0 0 0 0 0 0 0 0 0 0 0 0 0 0 0 0 0 0 0 0 0 0 0 0 0 0 0 0 0 0 0 0 0 0 0 0
0 0 0 0 0 0 0 0 0 0 0 0 0 0 0 0 0 0 0 0 0 0 0 0 0 0 0 0 0 0 0 0 0 0 0 0 0 0 0 0 0 0 0
0 0 0 0 0 0 0 0 0 0 0 0 0 0 0 0 0 0 0 0 0 0 0 0 0 0 0 0 0 0 0 0 0 0 0 0 0 0 0 0 0 0 0
0 0 0 0 0 0 0 0 0 0 0 0 0 0 0 0 0 0 0 0 0 0 0 0 0 0 0 0 0 0 0 0 0 0 0 0 0 0 0 0 0 0 0
0 0 0 0 0 0 0 0 0 0 0 0 0 0 0 0 0 0 0 0 0 0 0 0 0 0 0 0 0 0 0 0 0 0 0 0 0 0 0 0 0 0 0
0 0 0 0 0 0 0 0 0 0 0 0 0 0 0 0 0 0 0 0 0 0 0 0 0 0 0 0 0 0 0 0 0 0 0 0 0 0 0 0 0 0 0
0 0 0 0 0 0 0 0 0 0 0 0 0 0 0 0 0 0 0 0 0 0 0 0 0 0 0 0 0 0 0 0 0 0 0 0 0 0 0 0 0 0 0
0 0 0 0 0 0 0 0 0 0 0 0 0 0 0 0 0 0 0 0 0 0 0 0 0 0 0 0 0 0 0 0 0 0 0 0 0 0 0 0 0 0 0
0 0 0 0 0 0 0 0 0 0 0 0 0 0 0 0 0 0 0 0 0 0 0 0 0 0 0 0 0 0 0 0 0 0 0 0 0 0 0 0 0 0 0
0 0 0 0 0 0 0 0 0 0 0 0 0 0 0 0 0 0 0 0 0 0 0 0 0 0 0 0 0 0 0 0 0 0 0 0 0 0 0 0 0 0 0
0 0 0 0 0 0 0 0 0 0 0 0 0 0 0 0 0 0 0 0 0 0 0 0 0 0 0 0 0 0 0 0 0 0 0 0 0 0 0 0 0 0 0
Height
5706 5705 5703 5701 5698 5695 5691 5688 5684 5679 5674 5670 5664 5658 5652 5645 5637 5629 5620 5611 5601 5591 5581 5571 5561 5549 5538 5524 5510 5495 5479 5459 5447 5448 5437 5421 5404 5388 5372 5356 5341 5330 5323
5699 5697 5695 5692 5689 5686 5682 5678 5674 5669 5664 5659 5653 5646 5639 5632 5623 5614 5605 5595 5585 5574 5564 5553 5541 5529 5515 5500 5484 5468 5451 5431 5410 5400 5397 5385 5371 5358 5345 5334 5321 5309 5300
5691 5689 5686 5683 5680 5677 5673 5668 5664 5658 5653 5647 5641 5634 5626 5617 5608 5599 5589 5579 5568 5557 5545 5533 5520 5506 5491 5475 5458 5439 5421 5402 5381 5363 5356 5349 5340 5330 5318 5311 5301 5290 5280
5683 5680 5678 5675 5671 5667 5663 5658 5653 5647 5641 5635 5628 5620 5612 5603 5593 5583 5573 5563 5552 5539 5525 5511 5496 5480 5463 5446 5428 5409 5389 5372 5355 5339 5327 5320 5312 5304 5293 5286 5280 5272 5263
5674 5672 5669 5666 5662 5658 5653 5648 5642 5636 5629 5622 5615 5606 5597 5587 5577 5567 5558 5546 5534 5520 5505 5488 5471 5453 5434 5413 5393 5375 5358 5343 5329 5316 5306 5297 5289 5281 5273 5266 5261 5256 5249
5666 5663 5660 5656 5652 5647 5642 5637 5631 5624 5617 5609 5600 5592 5582 5572 5562 5551 5540 5528 5514 5498 5483 5466 5447 5427 5407 5387 5367 5349 5332 5318 5305 5294 5286 5277 5271 5264 5258 5252 5246 5242 5237
5657 5654 5650 5646 5642 5637 5632 5626 5619 5612 5604 5595 5586 5577 5568 5557 5547 5535 5522 5509 5493 5476 5458 5440 5421 5400 5379 5361 5346 5331 5317 5301 5288 5277 5270 5264 5258 5253 5248 5243 5237 5231 5225
5648 5645 5641 5636 5632 5626 5621 5614 5607 5599 5591 5582 5572 5563 5553 5542 5530 5517 5504 5490 5473 5454 5433 5412 5392 5375 5356 5338 5325 5313 5300 5288 5277 5268 5261 5255 5249 5244 5238 5234 5228 5223 5217
5639 5635 5631 5626 5621 5615 5609 5602 5595 5586 5577 5568 5558 5548 5537 5525 5512 5498 5483 5469 5452 5433 5411 5388 5366 5350 5336 5320 5307 5297 5288 5278 5270 5261 5254 5248 5243 5238 5232 5227 5222 5217 5211
5629 5625 5621 5616 5610 5604 5597 5590 5582 5573 5564 5555 5544 5533 5521 5508 5493 5478 5460 5445 5430 5414 5393 5371 5350 5333 5319 5306 5296 5287 5279 5272 5265 5259 5252 5246 5240 5234 5228 5222 5216 5211 5206
5620 5616 5611 5605 5599 5592 5585 5577 5569 5561 5552 5543 5532 5519 5505 5489 5473 5456 5436 5417 5400 5385 5369 5354 5337 5322 5310 5298 5289 5281 5274 5267 5261 5256 5250 5244 5238 5232 5226 5220 5213 5207 5202
5610 5606 5600 5594 5588 5581 5573 5565 5557 5549 5540 5529 5518 5504 5487 5470 5453 5435 5416 5395 5375 5361 5348 5335 5324 5313 5302 5293 5285 5278 5271 5265 5259 5253 5247 5242 5236 5231 5225 5219 5212 5205 5199
5600 5595 5589 5583 5576 5569 5562 5554 5545 5536 5526 5515 5503 5489 5472 5453 5434 5416 5397 5378 5360 5346 5334 5322 5313 5304 5296 5289 5282 5275 5269 5263 5257 5251 5246 5241 5235 5230 5224 5218 5212 5205 5199
5590 5584 5578 5572 5565 5558 5550 5542 5532 5522 5511 5499 5485 5471 5455 5436 5417 5399 5382 5365 5350 5336 5325 5315 5306 5298 5291 5285 5279 5273 5267 5261 5255 5250 5245 5240 5234 5229 5224 5218 5213 5207 5201
5579 5574 5567 5561 5554 5547 5538 5528 5518 5506 5493 5480 5466 5451 5435 5419 5399 5380 5364 5350 5337 5326 5317 5309 5301 5294 5288 5282 5276 5270 5265 5259 5254 5249 5244 5239 5234 5228 5223 5218 5213 5207 5202
5569 5563 5557 5551 5544 5536 5526 5515 5502 5490 5475 5459 5444 5429 5412 5395 5380 5366 5352 5338 5327 5318 5310 5303 5297 5291 5286 5280 5275 5269 5264 5259 5253 5248 5243 5238 5233 5228 5223 5218 5214 5209 5204
5559 5553 5547 5540 5532 5523 5514 5504 5491 5476 5458 5441 5425 5409 5393 5378 5364 5352 5341 5329 5319 5312 5305 5299 5294 5288 5283 5278 5273 5268 5263 5257 5252 5247 5242 5237 5232 5228 5223 5219 5215 5211 5207
5549 5543 5536 5528 5520 5511 5500 5488 5476 5462 5447 5429 5410 5393 5378 5363 5351 5340 5331 5322 5314 5307 5302 5297 5291 5287 5282 5277 5272 5266 5261 5256 5251 5245 5240 5236 5231 5227 5223 5219 5216 5212 5209
5539 5532 5525 5516 5507 5497 5485 5472 5458 5444 5429 5413 5398 5381 5366 5352 5340 5330 5322 5316 5310 5305 5299 5295 5290 5285 5280 5275 5270 5265 5259 5254 5249 5244 5239 5235 5230 5226 5223 5220 5216 5213 5210
5528 5521 5513 5504 5493 5482 5469 5456 5442 5427 5411 5396 5381 5368 5356 5344 5334 5325 5318 5312 5307 5302 5298 5293 5289 5284 5279 5274 5268 5263 5257 5252 5247 5242 5238 5233 5229 5226 5222 5219 5216 5214 5211
5517 5509 5500 5490 5479 5467 5453 5439 5425 5410 5395 5380 5366 5353 5343 5334 5326 5320 5314 5310 5305 5301 5297 5293 5288 5283 5278 5272 5266 5261 5255 5250 5245 5241 5236 5232 5228 5225 5221 5219 5216 5214 5211
5506 5497 5487 5476 5464 5451 5437 5423 5408 5394 5379 5366 5354 5343 5333 5326 5320 5315 5311 5308 5304 5301 5297 5293 5288 5283 5278 5272 5266 5260 5254 5248 5243 5239 5234 5231 5227 5224 5221 5218 5215 5213 5211
5493 5484 5473 5461 5448 5435 5420 5406 5392 5378 5365 5354 5343 5334 5327 5321 5317 5313 5310 5307 5304 5301 5297 5293 5288 5283 5277 5271 5266 5260 5254 5249 5243 5238 5234 5230 5226 5223 5220 5217 5214 5212 5211
5480 5470 5458 5446 5433 5419 5405 5391 5377 5365 5354 5343 5335 5328 5322 5318 5315 5312 5310 5307 5305 5301 5298 5293 5289 5283 5278 5272 5266 5261 5255 5249 5244 5239 5234 5230 5227 5223 5220 5217 5214 5212 5210
5466 5455 5443 5430 5417 5404 5390 5376 5364 5353 5343 5335 5328 5323 5319 5316 5314 5313 5311 5309 5306 5303 5299 5295 5290 5285 5280 5274 5268 5263 5257 5252 5246 5241 5237 5233 5229 5225 5221 5218 5215 5212 5211
5452 5440 5428 5415 5402 5388 5375 5363 5352 5343 5335 5328 5323 5319 5317 5316 5315 5314 5312 5310 5308 5305 5301 5297 5293 5288 5283 5277 5272 5266 5260 5255 5250 5245 5241 5237 5233 5228 5224 5220 5217 5214 5212
Wind_Speed
31 32 35 37 39 40 41 42 43 45 47 49 51 53 56 59 62 66 68 70 70 70 71 74 77 82 87 92 97 102 107 113 116 113 112 110 107 103 98 94 92 89 86
31 33 35 37 38 40 41 43 44 47 49 51 53 56 59 62 65 68 69 69 69 71 74 79 83 88 93 99 104 109 113 116 118 116 107 99 92 87 83 80 80 80 79
32 34 35 37 39 40 42 44 46 49 51 53 55 59 62 65 67 68 68 69 71 75 80 85 90 95 100 106 111 114 115 113 109 105 97 88 82 78 76 73 72 70 69
32 34 36 38 40 42 44 46 48 51 53 55 58 61 64 66 67 67 68 71 75 81 86 92 97 102 108 112 115 114 110 104 98 92 88 82 78 73 71 66 61 57 54
32 34 36 38 41 43 46 48 50 52 55 58 61 64 66 66 66 68 71 76 81 86 92 97 103 109 113 114 112 107 101 94 89 86 82 76 70 64 59 53 48 43 41
33 35 37 40 43 45 47 49 52 54 57 61 63 64 65 65 68 71 76 81 87 93 98 103 109 112 112 107 102 96 91 86 82 77 70 63 56 50 45 41 38 35 32
34 37 39 42 44 46 48 51 53 56 59 62 63 63 64 67 71 76 81 87 93 98 104 109 111 109 104 97 91 85 79 72 67 61 54 48 44 41 37 34 32 30 30
36 39 41 43 46 48 50 53 55 58 60 60 61 63 66 71 76 81 87 92 98 103 108 110 107 100 93 87 80 73 64 55 50 45 42 40 37 35 33 31 29 27 28
38 40 42 45 47 49 52 54 57 58 58 60 62 66 71 76 82 87 93 97 102 106 106 103 97 89 82 75 68 58 49 42 38 36 36 34 33 33 32 30 27 25 23
39 41 43 45 48 51 53 55 56 56 58 61 65 70 76 82 88 94 99 102 105 103 98 90 83 77 70 62 54 46 38 32 29 28 29 30 30 30 30 29 28 26 24
40 42 44 47 50 52 53 54 55 56 59 64 69 76 82 88 93 98 102 104 103 97 88 78 70 64 57 50 43 37 32 28 25 25 25 25 25 26 27 28 29 28 25
41 43 46 48 50 51 52 53 55 58 62 68 73 80 86 92 97 100 102 101 96 88 77 68 60 52 45 39 34 30 27 25 24 23 22 22 22 23 25 26 27 28 25
41 44 46 48 49 50 52 54 57 62 67 72 78 84 89 94 99 101 99 93 84 76 67 58 50 43 37 32 28 25 23 22 21 21 21 21 21 22 23 24 26 26 24
42 44 46 47 49 50 53 56 61 66 72 78 83 88 92 96 99 97 91 82 73 64 55 47 41 35 31 27 24 22 22 21 20 20 20 21 21 22 22 22 22 22 21
43 44 45 47 48 51 55 60 66 72 78 83 88 92 95 96 95 90 81 72 63 54 45 38 32 28 26 24 23 22 21 21 21 21 21 21 21 21 21 20 20 20 19
43 44 45 47 50 54 59 65 71 77 83 88 91 94 95 93 87 79 70 62 53 44 36 30 26 23 22 20 19 20 21 21 21 21 21 20 20 19 19 19 19 18 17
42 43 46 49 53 58 63 69 74 80 85 89 92 94 91 85 77 69 60 51 43 35 29 25 23 21 19 18 19 19 20 21 20 20 20 20 19 18 17 17 17 16 14
42 45 48 53 57 62 68 73 78 82 86 89 91 89 83 76 68 60 50 40 34 29 25 22 20 18 18 19 19 19 20 21 21 20 20 19 18 17 16 15 15 13 12
44 48 52 57 62 67 72 77 82 85 88 89 87 81 74 66 59 51 41 32 27 23 21 19 18 18 18 19 19 20 20 20 20 20 19 18 17 15 15 14 13 11 10
47 52 56 61 67 72 76 80 84 86 88 86 80 72 64 56 48 39 32 26 22 19 17 16 17 17 19 20 20 21 21 21 20 19 18 17 16 14 14 13 11 10 8
51 56 61 66 71 75 79 82 85 87 85 79 71 64 57 47 38 30 24 19 16 15 15 15 16 18 20 21 22 22 21 21 19 18 17 16 15 14 13 12 10 8 6
55 60 65 69 74 78 81 84 86 84 78 70 62 55 47 37 29 23 17 14 13 12 13 15 17 18 20 21 21 21 21 20 19 17 16 15 14 13 13 11 9 7 5
59 63 68 73 77 80 83 85 83 77 69 62 54 45 36 28 21 15 12 11 11 12 14 16 18 19 21 21 21 20 20 19 19 17 16 14 13 12 11 10 8 6 5
62 67 71 75 79 81 83 82 76 68 61 53 44 35 27 19 12 9 8 9 10 12 14 16 19 20 21 21 21 21 20 20 19 17 16 14 13 12 11 10 8 6 4
66 70 74 78 80 82 80 75 67 60 52 43 34 25 17 10 6 6 7 9 11 13 15 17 19 20 21 21 22 22 21 20 19 18 17 16 15 14 13 12 9 7 5
69 73 76 79 81 80 74 66 59 52 43 34 25 15 8 4 5 6 8 10 12 14 16 18 20 21 22 23 23 23 22 22 21 20 19 19 18 17 16 15 13 11 9
Wind_Direction
271 275 279 283 286 288 290 292 293 295 296 296 297 298 299 300 302 303 305 306 306 306 306 306 306 306 307 307 306 306 305 305 304 303 301 299 297 295 293 292 292 291 291
274 278 281 285 287 289 291 293 295 296 297 297 298 299 301 302 304 305 307 307 307 307 307 307 307 308 308 308 307 307 306 305 304 303 302 300 298 296 294 292 291 291 291
277 280 283 286 288 291 293 294 296 297 298 299 299 301 303 305 306 307 308 308 308 308 308 308 309 309 309 308 308 308 307 306 304 303 303 302 300 298 296 294 292 292 291
279 282 285 288 290 293 294 296 297 298 299 300 302 304 305 307 308 308 308 308 309 309 310 310 310 310 310 310 309 308 307 306 305 304 303 303 302 300 298 297 295 294 292
281 284 288 290 292 294 296 297 298 299 301 302 304 306 307 308 308 308 309 310 310 311 311 312 312 312 312 311 311 309 308 306 305 304 304 303 303 301 300 300 300 297 294
284 287 290 291 293 296 297 299 300 301 303 305 306 308 308 308 309 309 310 312 312 313 313 313 313 313 313 312 310 309 308 307 306 305 305 305 305 305 306 306 305 302 298
287 289 291 293 295 297 298 300 302 303 305 306 308 308 309 309 310 311 312 313 314 314 314 314 315 315 313 312 311 310 309 308 307 307 307 308 309 310 311 312 311 309 304
288 290 293 295 296 298 300 301 303 305 306 307 308 309 310 311 312 313 314 315 315 315 316 316 316 315 314 313 312 312 312 311 310 310 310 313 315 317 318 321 320 318 313
290 292 294 296 297 299 301 303 305 306 307 309 310 311 312 313 314 315 315 315 316 317 318 318 317 316 315 315 315 316 317 316 315 314 315 319 322 324 326 328 330 330 325
291 293 294 296 298 301 302 304 306 307 308 310 312 313 314 315 316 316 316 317 318 319 319 318 317 317 318 318 319 321 322 321 319 319 320 322 325 327 330 334 337 338 334
292 294 296 298 300 302 304 305 307 308 310 312 314 315 316 317 317 317 318 319 320 320 320 320 319 319 319 320 322 324 326 327 326 326 326 328 331 335 337 338 339 341 343
294 296 298 300 302 303 305 306 308 310 312 314 315 317 317 317 318 319 320 321 321 322 322 321 321 321 321 322 325 328 330 331 333 335 337 340 341 341 341 342 344 346 350
296 298 300 302 303 305 306 308 310 312 314 316 317 317 318 318 319 321 322 322 322 322 322 322 323 323 324 325 327 331 334 338 341 344 346 346 346 347 347 347 348 350 354
298 300 302 303 305 306 309 311 313 315 316 317 318 318 319 320 321 322 322 322 321 321 322 323 323 324 326 328 332 337 341 344 347 348 348 347 347 348 349 351 353 356 359
301 302 303 305 307 309 312 314 316 317 318 318 319 320 320 321 322 323 323 323 322 323 324 325 325 327 329 332 336 341 344 346 347 347 347 347 347 348 351 354 358 1 6
302 304 305 307 310 312 315 317 318 319 319 320 320 321 322 323 323 324 324 324 323 324 326 327 329 330 333 336 339 341 343 344 344 343 344 345 347 349 351 355 0 6 11
305 306 308 311 313 315 317 318 319 320 320 320 321 323 323 324 324 324 325 325 325 326 329 331 333 336 339 341 342 342 343 344 343 343 344 344 346 348 351 355 0 7 15
308 309 311 314 315 317 318 319 320 320 321 321 322 323 324 324 324 325 326 326 327 328 332 335 338 341 342 342 343 344 344 344 344 344 344 344 345 347 351 355 360 6 14
311 312 314 316 317 318 319 320 321 321 322 323 323 324 324 324 324 325 326 328 329 331 334 338 341 342 344 344 345 344 344 343 343 343 344 344 345 346 348 351 356 3 13
313 315 316 318 319 320 320 321 321 322 323 324 324 324 324 324 324 325 326 328 331 335 340 344 346 349 349 348 346 344 343 342 341 341 342 343 344 345 346 347 348 354 6
315 316 318 319 320 320 321 321 322 323 324 325 324 324 325 325 326 326 328 332 337 342 348 352 354 353 352 350 347 346 344 343 341 340 341 342 344 346 346 345 343 347 356
317 318 319 320 321 321 322 322 323 324 325 325 325 325 325 326 327 330 334 341 347 354 359 0 359 358 356 354 353 351 350 349 347 344 343 344 344 344 344 345 345 347 350
318 319 320 321 322 322 322 323 324 325 326 326 326 325 325 326 329 335 344 353 3 8 8 6 4 3 2 1 1 1 0 359 357 355 353 351 350 349 349 350 352 355 358
319 320 321 322 322 322 323 324 325 326 326 326 326 326 326 328 335 349 4 16 20 18 15 13 11 10 9 9 10 10 9 10 11 12 11 9 8 7 6 5 4 3 5
321 322 322 322 322 323 324 325 326 326 327 327 327 327 329 337 358 23 35 37 34 29 25 23 21 20 19 19 18 16 17 19 22 24 25 25 24 23 23 23 23 23 27
322 322 322 322 323 324 325 326 326 327 327 327 327 330 339 16 60 64 60 54 46 40 36 33 31 30 29 27 26 27 28 29 31 32 33 33 33 33 35 38 41 46 54